User: anonymous   Login
Location: Unspecified
(0.0000°N, 0.0000°E)
Time: 02:07:17
(UTC+00:00)
Language:

STARLINK-4575 - Orbit

View from above orbital plane
View from above orbital plane
View from above satellite
View from above satellite

Ground track
Ground track

The orbit is defined by the following mean orbital elements,

1 53565U          26145.20131925 +.00000000 +00000-0 -10951-3 0 00008
2 53565  53.2145  70.7982 0001532  84.9534 275.1633 15.08849504    04
Epoch (UTC): 25 May 2026 04:49:53
Eccentricity: 0.0001532
inclination: 53.2145°
perigee height: 539 km
apogee height: 541 km
right ascension of ascending node: 70.7982°
argument of perigee: 84.9534°
revolutions per day: 15.08849504
mean anomaly at epoch: 275.1633°

The dashed part of the orbit path shows where the satellite is in the earth's shadow,  

DLR